| time (UTC) | temp F | wind direction | speed MPH | gust MPH | rain 1hr in | rain 24hr in | rain mn in | humidity % | barometer mb |
| 20260502234542 | 55 | 338 | 2.0 | 3.0 | 0.00 | 0.00 | 0.00 | 40 | 1010.2 |
| 20260502233021 | 55 | 304 | 1.0 | 3.0 | 0.00 | 0.00 | 0.00 | 40 | 1010.5 |
| 20260502231526 | 55 | 239 | 2.0 | 7.0 | 0.00 | 0.00 | 0.00 | 41 | 1010.6 |
| 20260502230022 | 55 | 240 | 2.0 | 7.0 | 0.00 | 0.00 | 0.00 | 41 | 1010.8 |
| 20260502224518 | 57 | 192 | 1.0 | 4.0 | 0.00 | 0.00 | 0.00 | 36 | 1010.9 |
| 20260502223033 | 57 | 278 | 0.0 | 3.0 | 0.00 | 0.00 | 0.00 | 38 | 1011.0 |
| 20260502221512 | 56 | 276 | 1.0 | 7.0 | 0.00 | 0.00 | 0.00 | 41 | 1011.2 |
| 20260502220012 | 56 | 291 | 2.0 | 4.0 | 0.00 | 0.00 | 0.00 | 36 | 1011.3 |
| 20260502214509 | 57 | 263 | 3.0 | 10.0 | 0.00 | 0.00 | 0.00 | 34 | 1011.4 |
| 20260502213006 | 57 | 259 | 6.0 | 12.0 | 0.00 | 0.00 | 0.00 | 35 | 1011.7 |
| 20260502211503 | 56 | 254 | 4.0 | 11.0 | 0.00 | 0.00 | 0.00 | 36 | 1011.9 |
| 20260502210001 | 56 | 275 | 5.0 | 12.0 | 0.00 | 0.00 | 0.00 | 34 | 1012.2 |
| 20260502204600 | 57 | 304 | 6.0 | 12.0 | 0.00 | 0.00 | 0.00 | 32 | 1012.2 |
| 20260502203114 | 56 | 265 | 7.0 | 13.0 | 0.00 | 0.00 | 0.00 | 31 | 1012.5 |
| 20260502201553 | 55 | 286 | 3.0 | 11.0 | 0.00 | 0.00 | 0.00 | 35 | 1012.9 |
| 20260502200056 | 54 | 284 | 4.0 | 10.0 | 0.00 | 0.00 | 0.00 | 34 | 1013.2 |
| 20260502194552 | 54 | 266 | 2.0 | 9.0 | 0.00 | 0.00 | 0.00 | 35 | 1013.4 |
| 20260502193049 | 54 | 266 | 6.0 | 12.0 | 0.00 | 0.00 | 0.00 | 35 | 1013.5 |
| 20260502191548 | 55 | 288 | 5.0 | 9.0 | 0.00 | 0.00 | 0.00 | 34 | 1013.9 |
| 20260502190044 | 54 | 244 | 6.0 | 10.0 | 0.00 | 0.00 | 0.00 | 35 | 1014.3 |
| 20260502184540 | 53 | 286 | 5.0 | 13.0 | 0.00 | 0.00 | 0.00 | 35 | 1014.5 |
| 20260502183038 | 53 | 298 | 4.0 | 13.0 | 0.00 | 0.00 | 0.00 | 38 | 1014.5 |
| 20260502181535 | 52 | 246 | 6.0 | 12.0 | 0.00 | 0.00 | 0.00 | 35 | 1014.7 |
| 20260502163033 | 49 | 236 | 3.0 | 11.0 | 0.00 | 0.00 | 0.00 | 41 | 1016.6 |
| 20260502161520 | 48 | 251 | 3.0 | 10.0 | 0.00 | 0.00 | 0.00 | 42 | 1016.8 |
| 20260502151558 | 46 | 259 | 3.0 | 7.0 | 0.00 | 0.00 | 0.00 | 48 | 1017.4 |
| 20260502123020 | 27 | 53 | 0.0 | 0.0 | 0.00 | 0.00 | 0.00 | 92 | 1018.8 |
| 20260502121512 | 25 | 53 | 0.0 | 0.0 | 0.00 | 0.00 | 0.00 | 93 | 1018.9 |
| 20260502114511 | 23 | 53 | 0.0 | 0.0 | 0.00 | 0.00 | 0.00 | 92 | 1018.9 |
| 20260502113010 | 23 | 53 | 0.0 | 0.0 | 0.00 | 0.00 | 0.00 | 92 | 1018.9 |
| 20260502111509 | 22 | 53 | 0.0 | 0.0 | 0.00 | 0.00 | 0.00 | 92 | 1018.9 |
| 20260502110007 | 22 | 53 | 0.0 | 0.0 | 0.00 | 0.00 | 0.00 | 91 | 1018.9 |
| 20260502104513 | 23 | 52 | 0.0 | 0.0 | 0.00 | 0.00 | 0.00 | 92 | 1019.0 |
| 20260502103005 | 23 | 52 | 0.0 | 0.0 | 0.00 | 0.00 | 0.00 | 92 | 1019.1 |
| 20260502101503 | 23 | 52 | 0.0 | 0.0 | 0.00 | 0.00 | 0.00 | 91 | 1019.0 |
| 20260502090104 | 24 | 52 | 0.0 | 0.0 | 0.00 | 0.00 | 0.00 | 91 | 1019.2 |
| 20260502080110 | 25 | 52 | 0.0 | 0.0 | 0.00 | 0.00 | 0.00 | 90 | 1019.4 |
| 20260502070104 | 26 | 52 | 0.0 | 0.0 | 0.00 | 0.00 | 0.00 | 88 | 1019.8 |
| 20260502064551 | 26 | 52 | 0.0 | 0.0 | 0.00 | 0.00 | 0.00 | 88 | 1019.9 |
| 20260502063050 | 26 | 52 | 0.0 | 0.0 | 0.00 | 0.00 | 0.00 | 87 | 1019.8 |
| 20260502061546 | 26 | 52 | 0.0 | 0.0 | 0.00 | 0.00 | 0.00 | 86 | 1019.8 |
| 20260502060050 | 26 | 52 | 0.0 | 0.0 | 0.00 | 0.00 | 0.00 | 85 | 1019.9 |
| 20260502054545 | 27 | 52 | 0.0 | 0.0 | 0.00 | 0.00 | 0.00 | 84 | 1019.9 |
| 20260502053042 | 27 | 52 | 0.0 | 0.0 | 0.00 | 0.00 | 0.00 | 82 | 1020.0 |
| 20260502051551 | 27 | 52 | 0.0 | 0.0 | 0.00 | 0.00 | 0.00 | 81 | 1020.0 |
| 20260502050043 | 28 | 52 | 0.0 | 0.0 | 0.00 | 0.00 | 0.00 | 81 | 1020.0 |
| 20260502044543 | 28 | 52 | 0.0 | 0.0 | 0.00 | 0.00 | 0.00 | 80 | 1020.0 |
| 20260502043041 | 28 | 51 | 0.0 | 0.0 | 0.00 | 0.00 | 0.00 | 80 | 1020.0 |
| 20260502041537 | 29 | 51 | 0.0 | 0.0 | 0.00 | 0.00 | 0.00 | 79 | 1020.0 |
| 20260502040037 | 30 | 51 | 0.0 | 0.0 | 0.00 | 0.00 | 0.00 | 79 | 1020.2 |
| 20260502034537 | 31 | 51 | 0.0 | 0.0 | 0.00 | 0.00 | 0.00 | 77 | 1020.1 |
| 20260502033036 | 31 | 51 | 0.0 | 0.0 | 0.00 | 0.00 | 0.00 | 76 | 1020.2 |
| 20260502031535 | 32 | 51 | 0.0 | 0.0 | 0.00 | 0.00 | 0.00 | 73 | 1020.1 |
| 20260502030039 | 33 | 51 | 0.0 | 0.0 | 0.00 | 0.00 | 0.00 | 69 | 1020.1 |
| 20260502024535 | 35 | 51 | 0.0 | 0.0 | 0.00 | 0.00 | 0.00 | 69 | 1020.1 |
| 20260502023035 | 36 | 51 | 0.0 | 0.0 | 0.00 | 0.00 | 0.00 | 64 | 1020.0 |
| 20260502021536 | 38 | 51 | 0.0 | 0.0 | 0.00 | 0.00 | 0.00 | 59 | 1020.0 |
| 20260502020034 | 39 | 51 | 0.0 | 0.0 | 0.00 | 0.00 | 0.00 | 56 | 1019.9 |
| 20260502014536 | 40 | 51 | 0.0 | 0.0 | 0.00 | 0.00 | 0.00 | 52 | 1019.8 |
| 20260502013034 | 41 | 51 | 0.0 | 3.0 | 0.00 | 0.00 | 0.00 | 48 | 1019.7 |
| 20260502011534 | 42 | 50 | 2.0 | 5.0 | 0.00 | 0.00 | 0.00 | 51 | 1019.5 |
| 20260502010033 | 43 | 21 | 1.0 | 4.0 | 0.00 | 0.00 | 0.00 | 48 | 1019.6 |
| 20260502004532 | 44 | 9 | 3.0 | 9.0 | 0.00 | 0.00 | 0.00 | 45 | 1019.5 |
| 20260502003032 | 44 | 340 | 3.0 | 9.0 | 0.00 | 0.00 | 0.00 | 43 | 1019.5 |
| 20260502001537 | 45 | 360 | 1.0 | 8.0 | 0.00 | 0.00 | 0.00 | 46 | 1019.4 |
| 20260502000030 | 45 | 350 | 2.0 | 8.0 | 0.00 | 0.00 | 0.00 | 45 | 1019.4 |